Home   Weather   Helsingborg   Past weeks
Flag for Sweden

Past Weather in Helsingborg, Sweden — Yesterday and Last 2 Weeks

Now
32 °F

Passing clouds.


Feels Like: 24 °F
Forecast: 42 / 30 °F
Wind: 10 mph from North

Location: Ljungbyhed

Current Time: Mar 29, 2020 at 8:42:22 am

Latest Report: Mar 29, 2020 at 7:50 am


Visibility: N/A

Pressure: 30.36 "Hg

Humidity: 69%

Dew Point: 23 °F

Location of HelsingborgLocation

Past Weather in Helsingborg — Graph

°F

Helsingborg Temperature Yesterday

Maximum temperature yesterday: 50 °F (at 11:20 am)
Minimum temperature yesterday: 25 °F (at 2:20 am)
Average temperature yesterday: 38 °F

High & Low Weather Summary for the Past Weeks

 TemperatureHumidityPressure
High54 °F (Mar 27, 12:50 pm)100% (Mar 16, 6:50 am)30.77 "Hg (Mar 16, 6:50 am)
Low19 °F (Mar 22, 4:50 am)23% (Mar 21, 3:50 pm)29.80 "Hg (Mar 16, 1:20 am)
Average39 °F71%30.33 "Hg
* Reported Mar 14 6:20 am — Mar 29 7:50 am, Helsingborg. Weather by CustomWeather, © 2020

Note: Actual official high and low records may vary slightly from our data, if they occured in-between our weather recording intervals... More about our weather records

Helsingborg Weather History for the Previous 24 Hours

Scroll right to see more
 ConditionsComfort  
Time TempWeatherWind HumidityBarometerVisibility
7:50 am
Sun, Mar 29
32 °FPassing clouds.10 mph69%30.36 "HgN/A
7:20 am32 °FChilly.8 mph75%30.33 "HgN/A
6:50 am32 °FChilly.8 mph80%30.33 "HgN/A
6:20 am32 °FPassing clouds.10 mph87%30.30 "HgN/A
5:50 am34 °FPassing clouds.13 mph81%30.30 "HgN/A
5:20 am34 °FLight snow. Passing clouds.12 mph93%30.27 "HgN/A
4:50 am32 °FLight snow. Passing clouds.9 mph100%30.27 "Hg3 mi
4:20 am32 °FLight snow. Passing clouds.8 mph100%30.24 "Hg4 mi
3:50 am34 °FLight snow. Passing clouds.14 mph93%30.24 "Hg1 mi
3:20 am34 °FLight snow. Overcast.14 mph93%30.24 "Hg5 mi
1:50 am32 °FLight snow. Passing clouds.13 mph100%30.21 "Hg2 mi
1:20 am32 °FLight snow. Passing clouds.14 mph100%30.21 "Hg1 mi
12:50 am34 °FLight snow. Passing clouds.20 mph100%30.18 "Hg1 mi
12:20 am37 °FLight rain. Partly cloudy.20 mph87%30.15 "HgN/A
11:50 pm
Sat, Mar 28
43 °FPartly cloudy.13 mph76%30.12 "HgN/A
11:20 pm43 °FPassing clouds.9 mph71%30.12 "HgN/A
10:50 pm43 °FPassing clouds.8 mph71%30.09 "HgN/A
10:20 pm43 °FPassing clouds.8 mph71%30.09 "HgN/A
9:50 pm41 °FPassing clouds.7 mph87%30.09 "HgN/A
9:20 pm41 °FFog.7 mph93%30.09 "Hg4 mi
8:50 pm39 °FFog.8 mph100%30.09 "Hg3 mi
8:20 pm39 °FFog.6 mph100%30.07 "Hg3 mi
7:50 pm39 °FFog.6 mph100%30.07 "Hg3 mi
7:20 pm39 °FFog.6 mph100%30.07 "Hg3 mi
6:20 pm39 °FFog.8 mph100%30.07 "Hg4 mi
5:50 pm39 °FFog.14 mph100%30.07 "Hg4 mi
5:20 pm41 °FFog.16 mph93%30.07 "Hg4 mi
4:50 pm41 °FFog.16 mph87%30.07 "Hg4 mi
4:20 pm43 °FQuite cool.15 mph81%30.09 "HgN/A
3:50 pm45 °FQuite cool.16 mph76%30.09 "HgN/A
3:20 pm48 °FCool.14 mph62%30.09 "HgN/A
2:50 pm48 °FCool.13 mph62%30.09 "HgN/A
2:20 pm48 °FCool.14 mph62%30.09 "HgN/A
1:50 pm50 °FCool.13 mph54%30.12 "HgN/A
1:20 pm50 °FCool.12 mph50%30.12 "HgN/A
12:50 pm50 °FCool.10 mph43%30.12 "HgN/A
12:20 pm50 °FCool.9 mph40%30.12 "HgN/A
11:50 am50 °FCool.7 mph32%30.15 "HgN/A
11:20 am50 °FCool.8 mph35%30.15 "HgN/A
10:50 am48 °FCool.8 mph37%30.15 "HgN/A
10:20 am48 °FCool.7 mph43%30.18 "HgN/A
9:50 am46 °FCool.7 mph43%30.18 "HgN/A
9:20 am45 °FQuite cool.6 mph53%30.18 "HgN/A
8:50 am41 °FQuite cool.6 mph61%30.18 "HgN/A
8:20 am37 °FChilly.No wind75%30.18 "HgN/A
Weather by CustomWeather, © 2020

See weather overview

Advertising